AO-07 1 07530U 74089B 18228.89552580 -.00000028 00000-0 10254-3 0 9992 2 07530 101.6923 195.3193 0011738 216.7796 167.0749 12.53633824001965 UO-11 1 14781U 84021B 18228.92715661 .00000037 00000-0 10787-4 0 9991 2 14781 097.6450 262.5377 0007164 238.2133 121.8384 14.83023309832447 LO-19 1 20442U 90005G 18228.89347635 .00000007 00000-0 18691-4 0 9998 2 20442 098.6118 167.0198 0011322 336.8951 023.1722 14.32902226492523 HUBBLE 1 20580U 90037B 18228.97222848 .00000399 00000-0 13415-4 0 9996 2 20580 028.4700 073.2717 0002844 075.3866 073.0376 15.09076829354575 MET-2/21 1 22782U 93055A 18228.67952390 .00000017 00000-0 23700-5 0 9990 2 22782 082.5475 045.9185 0021384 319.8872 089.5493 13.83811399260273 AO-27 1 22825U 93061C 18228.95289392 -.00000011 00000-0 13444-4 0 9999 2 22825 098.8678 206.1864 0008634 162.4021 197.7461 14.30036730297988 IO-26 1 22826U 93061D 18228.95564475 -.00000003 00000-0 16662-4 0 9994 2 22826 098.8619 206.2194 0009334 152.6687 207.4988 14.30368593298190 FO-29 1 24278U 96046B 18228.93751571 -.00000045 00000-0 -71007-5 0 9998 2 24278 098.5157 059.3160 0349580 313.4239 043.8288 13.53084915086206 NOAA-15 1 25338U 98030A 18228.96087504 .00000017 00000-0 25720-4 0 9999 2 25338 098.7680 245.4290 0011421 054.9571 305.2679 14.25870909053428 GO-32 1 25397U 98043D 18228.82535180 -.00000012 00000-0 13867-4 0 9996 2 25397 098.6518 168.2695 0001268 150.4256 209.6995 14.23649665044130 ISS 1 25544U 98067A 18229.05849532 .00000348 00000-0 12645-4 0 9995 2 25544 51.6408 75.3431 0005983 64.8447 56.2912 15.53839135127982 NO-44 1 26931U 01043C 18228.69233174 -.00000044 00000-0 14835-4 0 9999 2 26931 067.0508 073.2868 0007739 265.4291 094.5926 14.30513690881136 SO-50 1 27607U 02058C 18228.53524929 -.00000036 00000-0 15727-4 0 9993 2 27607 064.5539 265.5651 0071300 315.5191 044.0199 14.75470743841734 CO-55 1 27844U 03031E 18228.95795404 .00000033 00000-0 34386-4 0 9990 2 27844 098.6869 236.7180 0009507 188.8913 171.2098 14.22127786784792 CO-57 1 27848U 03031J 18228.93422712 .00000014 00000-0 26474-4 0 9999 2 27848 098.6955 237.1126 0009205 199.9363 160.1456 14.21730215784661 RS-22 1 27939U 03042A 18228.97043568 .00000097 00000-0 25881-4 0 9996 2 27939 097.9991 006.5636 0011989 320.8320 150.3751 14.66707263795586 NOAA-18 1 28654U 05018A 18228.95920649 -.00000002 00000-0 24306-4 0 9996 2 28654 099.1407 265.6347 0013551 320.2654 039.7523 14.12382562682264 CO-58 1 28895U 05043F 18228.91817995 .00000109 00000-0 29734-4 0 9993 2 28895 097.9172 017.9411 0015678 234.6090 125.3649 14.63570626682526 Falconsat-3 1 30776U 07006E 18228.38111904 .00001720 00000-0 51380-4 0 9995 2 30776 035.4346 243.4833 0003476 225.1432 134.9012 15.34755041633575 CO-65 1 32785U 08021C 18228.83213908 .00000169 00000-0 23919-4 0 9995 2 32785 097.5470 238.1148 0012697 190.5541 169.5412 14.88158375558125 AAUSAT2 1 32788U 08021F 18228.01622801 .00000735 00000-0 73166-4 0 9992 2 32788 097.5191 252.0218 0012921 142.1125 218.1008 14.94415327559013 DO-64 1 32789U 08021G 18228.70159876 .00001527 00000-0 10810-3 0 9992 2 32789 97.5072 281.9672 0014034 92.1821 268.1013 15.06219064560894 CO-66 1 32791U 08021J 18228.82162166 .00000150 00000-0 20678-4 0 9999 2 32791 097.5349 243.5971 0013630 169.8730 190.2766 14.90604287558469 RS-30 1 32953U 08025A 18228.88549376 .00000031 00000-0 14843-3 0 9995 2 32953 082.5066 334.9292 0020030 079.3814 280.9521 12.43085014464313 PRISM 1 33493U 09002B 18220.73136351 -.00000063 00000-0 68896-7 0 9999 2 33493 98.1247 124.8295 0015451 138.8214 221.4204 14.96280044518208 NOAA-19 1 33591U 09005A 18228.92601666 .00000079 00000-0 68187-4 0 9992 2 33591 099.1467 208.1742 0014378 152.4907 207.7028 14.12300699490480 TISAT-1 1 36799U 10035E 18228.92469171 .00000386 00000-0 45300-4 0 9996 2 36799 098.1147 006.7803 0012557 015.8722 344.2886 14.90853418439009 JUGNU 1 37839U 11058B 18228.74893220 .00000297 00000-0 16547-4 0 9996 2 37839 019.9625 030.0128 0018904 194.5540 282.0033 14.12625401353834 SRMSAT 1 37841U 11058D 18228.92776767 .00000293 00000-0 15980-4 0 9991 2 37841 019.9729 079.3838 0011884 077.8579 051.7849 14.10611742353377 AO-71 1 37854U 11061E 18228.88899490 .00000969 00000-0 58391-4 0 9996 2 37854 101.7015 324.9378 0163045 253.3839 104.9415 15.05589708370510 HRBE 1 37855U 11061F 18228.92347907 .00000765 00000-0 47215-4 0 9990 2 37855 101.7146 322.5220 0175920 262.4223 095.6976 15.04579581370312 ALMASAT-1 1 38078U 12006B 18228.90785869 .00026897 39670-5 22398-3 0 9997 2 38078 69.4343 48.3003 0227133 13.4298 142.5040 15.44048440350019 HORYU-2 1 38340U 12025D 18228.62939211 .00000119 00000-0 25567-4 0 9992 2 38340 98.3637 252.4159 0012049 25.1145 335.0647 14.75585793336024 RS-40 1 38735U 12041C 18228.90448962 -.00000003 00000-0 -92379-4 0 9996 2 38735 082.4735 058.7548 0016814 179.0674 181.0440 12.42577171274545 BEESAT-3 1 39135U 13015F 18228.61848059 .00000826 00000-0 51682-4 0 9995 2 39135 064.8698 305.5501 0018526 233.7646 126.1768 15.16801813293421 BEESAT-2 1 39136U 13015G 18228.60958170 .00000536 00000-0 37596-4 0 9997 2 39136 64.8703 308.5264 0016973 235.5415 124.4107 15.16262506293750 ZACUBE-1 1 39417U 13066B 18228.65061780 .00000132 00000-0 23161-4 0 9997 2 39417 097.5842 254.0501 0057996 318.3161 041.3639 14.80964408255740 TRITON-1 1 39427U 13066M 18228.63631011 .00000168 00000-0 34520-4 0 9996 2 39427 097.6449 220.5707 0115505 066.0130 295.3118 14.67698468253257 GOMX-1 1 39430U 13066Q 18228.92572387 .00000143 00000-0 34523-4 0 9998 2 39430 097.7025 201.4437 0152409 138.3842 222.9077 14.59108657251825 LO-74 1 39440U 13066AA 18228.96287911 .00000178 00000-0 31803-4 0 9995 2 39440 097.6007 240.5856 0080449 359.3197 000.7890 14.75704854253686 AO-73 1 39444U 13066AE 18228.95216684 .00000181 00000-0 28907-4 0 9992 2 39444 097.5848 255.9373 0056987 312.3366 047.3028 14.81754406254061 SPROUT 1 39770U 14029E 18228.82307567 .00000474 00000-0 59198-4 0 9992 2 39770 97.8805 329.3764 0009563 16.8754 343.2750 14.86928656229375 DUCHIFAT-1 1 40021U 14033M 18228.75314517 .00000228 00000-0 29365-4 0 9993 2 40021 097.9134 147.5780 0012689 345.9379 014.1484 14.90359541225978 NANOSATCBR1 1 40024U 14033Q 18228.82433052 .00000224 00000-0 29440-4 0 9990 2 40024 97.9064 145.7706 0012027 348.5679 11.5263 14.89615922225904 EO-79 1 40025U 14033R 18228.70565272 .00000240 00000-0 31697-4 0 9993 2 40025 097.9019 143.9736 0012375 353.2597 006.8451 14.88753475225288 DTUSAT-2 1 40030U 14033W 18228.75386226 .00000195 00000-0 27115-4 0 9993 2 40030 97.8961 142.6382 0011664 348.6794 11.4158 14.88358844225747 EO-80 1 40032U 14033Y 18228.74709784 .00000193 00000-0 26911-4 0 9993 2 40032 097.8968 142.6340 0011629 349.2120 010.8846 14.88296713225216 ANTELSAT 1 40034U 14033AA 18228.89481398 .00000142 00000-0 28603-4 0 9993 2 40034 097.8025 103.2847 0059093 004.0134 356.1537 14.73954532223096 VELOX-1 1 40057U 14034E 18228.92272900 .00000183 00000-0 33347-4 0 9996 2 40057 098.2095 341.0387 0012060 129.6802 230.5468 14.77467297222619 DAURIA DX 1 1 40071U 14037C 18228.88072628 .00000070 00000-0 16418-4 0 9990 2 40071 098.3841 002.9776 0009581 122.3385 237.8765 14.81179482221980 UKUBE-1 1 40074U 14037F 18228.84225572 .00000194 00000-0 30561-4 0 9999 2 40074 98.3951 9.1938 0005476 114.5723 245.6080 14.83841032222293 HODOYOSHI-1 1 40299U 14070B 18228.78428421 .00000410 00000-0 20397-4 0 9993 2 40299 97.3757 309.4832 0014283 43.1403 107.6080 15.22978278209707 CHUBUSAT-1 1 40300U 14070C 18228.66868475 .00000609 00000-0 29873-4 0 9998 2 40300 97.3597 305.0641 0021286 52.3444 103.2239 15.21658246209471 QSAT-EOS 1 40301U 14070D 18228.88931020 .00001127 00000-0 47695-4 0 9998 2 40301 097.3568 306.8276 0027612 041.6609 048.5343 15.24938893209677 FIREBIRD FU3 1 40377U 15003B 18228.79040474 .00002679 00000-0 11152-3 0 9993 2 40377 099.0809 142.5417 0131398 029.5470 331.3101 15.17441151195506 FIREBIRD FU4 1 40378U 15003C 18228.71296070 .00002784 00000-0 11557-3 0 9997 2 40378 99.0811 142.5097 0131611 29.6924 331.1692 15.17449438195506 GRIFEX 1 40379U 15003D 18228.79839949 .00001760 00000-0 79891-4 0 9993 2 40379 99.0835 138.4513 0138854 42.8280 318.3664 15.14495593195278 NO-84 1 40654U 15025D 18228.23325822 .00003021 00000-0 55455-4 0 03808 2 40654 054.9922 124.8283 0151127 262.1202 096.2656 15.41522312065104 NO-83 1 40655U 15025E 18228.09625000 .00008931 00000-0 94154-4 0 04416 2 40655 054.9747 061.3278 0098809 301.4681 057.6721 15.59317796065622 DEORBITSAIL 1 40719U 15032E 18228.77108153 .00000285 00000-0 48179-4 0 9993 2 40719 097.9376 121.2818 0015380 208.7956 151.2406 14.76487145167113 NUDT-PHONESAT 1 40900U 15049B 18228.94425368 .00001659 00000-0 76627-4 0 9997 2 40900 097.4414 236.5036 0013577 169.0734 191.0800 15.21542704161156 XW-2A 1 40903U 15049E 18228.90642711 .00001556 00000-0 40095-4 0 9995 2 40903 097.3799 264.3576 0014509 164.2734 195.8966 15.40705669163154 XW-2C 1 40906U 15049H 18228.94142660 .00000483 00000-0 29141-4 0 9997 2 40906 097.4612 231.3257 0015118 172.9988 187.1459 15.15267915160692 XW-2D 1 40907U 15049J 18228.95373521 .00000521 00000-0 30991-4 0 9999 2 40907 097.4587 231.0282 0014545 170.4390 189.7122 15.15424870160704 LILACSAT-2 1 40908U 15049K 18228.96850779 .00000270 00000-0 18631-4 0 9994 2 40908 097.4701 230.3219 0016142 173.6234 186.5206 15.13558359160562 XW-2F 1 40910U 15049M 18228.91970850 .00000830 00000-0 45717-4 0 9992 2 40910 097.4585 232.4205 0015390 166.0690 194.0970 15.16655082160789 XW-2B 1 40911U 15049N 18228.90748959 .00000514 00000-0 30712-4 0 9993 2 40911 097.4621 231.5428 0014450 171.1969 188.9519 15.15367128160590 DCBB 1 40912U 15049P 18228.95693521 .00000699 00000-0 36721-4 0 9993 2 40912 097.4501 235.4313 0015762 153.1866 264.3488 15.18885714160893 TW-1C 1 40926U 15051B 18228.72553478 .00006332 00000-0 11479-3 0 9994 2 40926 97.1781 270.8023 0010968 60.0165 79.5586 15.49907865162687 TW-1A 1 40928U 15051D 18228.74528963 .00002103 00000-0 56423-4 0 9990 2 40928 97.1813 261.5328 0013723 100.4404 351.6158 15.38984348162090 IO-86 1 40931U 15052B 18227.09229999 .00000720 00000-0 11314-4 0 9992 2 40931 6.0007 90.0612 0013021 120.0305 240.1105 14.76581962155720 LQSat 1 40958U 15057A 18228.89308254 .00000016 00000-0 10217-4 0 9996 2 40958 097.9371 300.6884 0018996 138.9339 221.3293 14.73042391153793 AO-85 1 40967U 15058D 18228.37671168 -.00000002 00000-0 18278-4 0 04195 2 40967 064.7781 008.5340 0211495 295.4009 062.5369 14.75755563062537 ATHENOXAT-1 1 41168U 15077C 18228.61640855 .00001526 00000-0 46425-4 0 9995 2 41168 14.9835 297.9863 0011396 160.6874 276.0016 15.12898429147540 ChubuSat-2 1 41338U 16012B 18228.60323080 .00000278 00000-0 14961-4 0 9994 2 41338 031.0031 289.7915 0013902 311.6539 048.2906 15.00008961136912 ChubuSat-3 1 41339U 16012C 18228.54294980 .00000256 00000-0 13203-4 0 9998 2 41339 31.0121 288.6849 0013783 318.2109 41.7463 15.00194390136895 Horyu-4 1 41340U 16012D 18228.50210304 .00000405 00000-0 24223-4 0 9994 2 41340 31.0049 283.1374 0014132 331.5500 28.4363 15.01030781136964 OUFTI-1 1 41458U 16025C 18228.41719098 -.00000096 00000-0 -50458-7 0 9992 2 41458 98.1310 294.4776 0168251 306.1693 52.4067 15.04838727126497 e-st@r-II 1 41459U 16025D 18228.83417314 .00000721 00000-0 42315-4 0 9998 2 41459 98.1329 294.7311 0168725 305.5351 53.0219 15.04566294126545 AAUSAT4 1 41460U 16025E 18228.81991139 .00000403 00000-0 25467-4 0 9996 2 41460 98.1240 295.3172 0160365 301.0468 57.5080 15.06059845126617 LO-87 1 41557U 16033B 18228.81799387 .00000959 00000-0 38953-4 0 9993 2 41557 097.4360 312.8975 0011968 302.3681 057.6399 15.26994347123416 NuSat2 1 41558U 16033C 18228.67298546 .00001035 00000-0 40238-4 0 9994 2 41558 97.4380 312.9112 0011781 306.4015 53.6138 15.28293726123380 Lapan A3 1 41603U 16040E 18228.99192308 .00000003 00000-0 33546-5 0 9996 2 41603 097.4068 289.3946 0014487 033.4075 088.3589 15.19591703119314 Swayam 1 41607U 16040J 18228.85740466 .00001244 00000-0 56778-4 0 9998 2 41607 097.4084 290.9904 0014516 032.3539 327.8584 15.22397283119333 Pratham 1 41783U 16059A 18228.94181772 .00000034 00000-0 15989-4 0 9997 2 41783 098.1127 289.5044 0032240 264.6108 095.1416 14.62937132100840 AlSat 1N 1 41789U 16059G 18228.91636418 .00000046 00000-0 17848-4 0 9991 2 41789 098.1148 290.8271 0026995 256.0504 103.7681 14.64171928100903 ScatSat 1 41790U 16059H 18228.65724897 .00000004 00000-0 12217-4 0 9992 2 41790 098.2548 275.3333 0016901 266.0578 093.8685 14.50864747099953 TY-1 1 41844U 16066D 18228.95910630 .00000877 00000-0 39748-4 0 9991 2 41844 097.4057 235.1231 0015330 177.3201 238.5043 15.23405778098133 Pegasus-1 1 41846U 16066F 18228.96039055 .00000247 00000-0 47134-4 0 9996 2 41846 098.7505 258.6516 0369176 066.6746 297.2834 14.37380046092630 CAS-2T 1 41847U 16066G 18228.72169638 .00000046 00000-0 16763-4 0 9993 2 41847 098.7464 258.8765 0367172 064.7371 299.1391 14.37912901093024 TO-89 1 41932U 98067KU 18228.89750958 .00047987 00000-0 25085-3 0 9999 2 41932 051.6311 027.0482 0002213 074.7111 285.4135 15.80345103090355 AOBA-V3LOX3 1 41935U 98067KX 18228.52944057 .00082075 00000-0 31511-3 0 9995 2 41935 051.6342 022.2623 0001182 029.5388 330.5683 15.86670690090486 EO-88 1 42017U 17008BX 18228.87527287 .00001300 00000-0 55625-4 0 9998 2 42017 097.4437 293.5631 0007094 153.3682 206.7921 15.24605541083312 HAVELSAT 1 42700U 98067LH 18228.89181572 .00039369 00000-0 26949-3 0 9998 2 42700 051.6351 043.5995 0003279 126.5976 233.5325 15.74349073071574 SOMP2 1 42701U 98067LJ 18228.85954951 .00033868 00000-0 24568-3 0 9997 2 42701 051.6360 045.6480 0003482 123.5121 236.6211 15.73068100071534 PHOENIX 1 42706U 98067LP 18228.88227281 .00024740 00000-0 19400-3 0 9992 2 42706 051.6353 046.5658 0001020 071.6201 288.4908 15.71405188071443 X-CubeSat 1 42707U 98067LQ 18228.90924542 .00043300 00000-0 28514-3 0 9999 2 42707 051.6320 042.8717 0000715 083.2112 276.8969 15.75204834071484 qbee 1 42708U 98067LR 18228.89388553 .00038638 00000-0 26740-3 0 9991 2 42708 051.6364 044.3671 0000747 083.9641 276.1444 15.74107597071420 ZA-AeroSat 1 42713U 98067LU 18228.90082819 .00024551 00000-0 20442-3 0 9997 2 42713 051.6348 049.6797 0001825 053.3016 306.8149 15.69965259071064 LINK 1 42714U 98067LV 18228.85477297 .00148322 19185-4 47794-3 0 9990 2 42714 51.6216 30.9881 0003314 305.4222 54.6474 15.90627269 71419 UPSat 1 42716U 98067LX 18228.88949978 .00070463 00000-0 34564-3 0 9998 2 42716 051.6311 036.7144 0000963 160.9080 199.1958 15.81573574071361 SpaceCube 1 42717U 98067LY 18228.67119994 .00038360 00000-0 26779-3 0 9992 2 42717 51.6331 45.8368 0002324 127.8888 232.2322 15.73907080 70462 Hoopoe 1 42718U 98067LZ 18228.64348177 .00055817 00000-0 32665-3 0 9994 2 42718 51.6302 41.8774 0001384 116.5870 243.5272 15.77778878 70519 Challenger 1 42721U 98067MA 18224.59980250 .12090849 12543-4 42456-3 0 9997 2 42721 051.6121 042.1184 0010981 284.9336 075.0476 16.43490172069841 NJUST-1 1 42722U 98067MB 18228.87317043 .00023224 00000-0 20228-3 0 9991 2 42722 51.6357 51.7765 0005039 103.5342 256.6216 15.68895466 70106 UNSW-EC0 1 42723U 98067MC 18228.86001693 .00057532 00000-0 31732-3 0 9993 2 42723 51.6394 40.3942 0002702 115.3848 244.7433 15.79085412 70232 DUTHsat 1 42724U 98067MD 18228.90811769 .00589663 18324-3 72876-3 0 9992 2 42724 051.6244 023.8268 0008889 305.9388 054.0799 16.07163646070394 LO-90 1 42725U 98067ME 18228.86969524 .00030863 00000-0 23393-3 0 9993 2 42725 51.6362 47.9837 0003761 108.1950 251.9458 15.72079187 70057 nSIGHT1 1 42726U 98067MF 18228.90225375 .00012134 00000-0 13998-3 0 9999 2 42726 051.6388 061.0667 0005603 102.2299 257.9322 15.62371591069891 SNUSAT 1B 1 42727U 98067MG 18228.88257453 .00031259 00000-0 23707-3 0 9997 2 42727 051.6333 048.0024 0004950 070.6196 289.5337 15.72052662070022 QBITO 1 42728U 98067MH 18228.49178449 .00044020 00000-0 30114-3 0 9992 2 42728 51.6370 47.0106 0001725 114.9363 245.1816 15.74315739 69846 Aalto-2 1 42729U 98067MJ 18228.90281360 .00042716 00000-0 28657-3 0 9995 2 42729 051.6330 044.4198 0001529 120.0440 240.0711 15.74781830069927 SUSat 1 42730U 98067MK 18228.89894597 .00034450 00000-0 25341-3 0 9990 2 42730 051.6353 046.6557 0002064 112.0796 248.0422 15.72734429069890 i-INSPIRE II 1 42731U 98067ML 18228.57401883 .00071538 00000-0 37804-3 0 9993 2 42731 51.6356 40.6369 0002786 39.5475 320.5729 15.79942499 69988 PolyITAN-2-SAU 1 42732U 98067MM 18228.85993735 .00041757 00000-0 27846-3 0 9992 2 42732 51.6345 44.1009 0004068 56.7729 303.3659 15.74923769 69968 ExAlta-1 1 42734U 98067MP 18228.90036645 .00072377 00000-0 36209-3 0 9993 2 42734 051.6276 038.2290 0002915 090.4664 269.6672 15.81132933069996 Aoxiang-1 1 42735U 98067MQ 18228.88866073 .00023324 00000-0 19988-3 0 9990 2 42735 051.6348 051.0993 0005346 101.3955 258.7643 15.69287712071246 BeEagleSat 1 42736U 98067MR 18228.88111725 .00028667 00000-0 22611-3 0 9990 2 42736 51.6344 48.7790 0004845 102.4666 257.6874 15.71166061 69961 CAS-4B 1 42759U 17034B 18228.88253690 .00000100 00000-0 19713-4 0 9990 2 42759 43.0196 110.0455 0008317 128.2506 289.8368 15.09341038 64627 CAS-4A 1 42761U 17034D 18228.86056278 .00000150 00000-0 22777-4 0 9993 2 42761 43.0199 109.9002 0008671 130.1668 284.5031 15.09417490 64616 UCLSat 1 42765U 17036A 18228.89486881 .00000990 00000-0 46381-4 0 9998 2 42765 097.3960 287.7536 0010732 216.9626 143.0872 15.21981302064538 NIUSat 1 42766U 17036B 18228.94396016 .00000796 00000-0 39462-4 0 9991 2 42766 097.3960 286.9444 0015191 206.0589 153.9884 15.20499694063764 LituanicaSAT 2 1 42768U 17036D 18228.70651267 .00001616 00000-0 74582-4 0 9993 2 42768 97.3979 287.1426 0014868 208.6178 151.4243 15.21578951 63768 Aalto 1 1 42775U 17036L 18228.89532727 .00000635 00000-0 31857-4 0 9998 2 42775 097.3952 287.1346 0013421 205.8738 154.1828 15.20836465063724 URSA MAIOR 1 42776U 17036M 18228.94439078 .00000722 00000-0 35670-4 0 9994 2 42776 097.3959 287.2468 0013272 205.8114 154.2461 15.20923653063731 Max Valier Sat 1 42778U 17036P 18228.69120978 .00000781 00000-0 37827-4 0 9995 2 42778 097.3986 287.3873 0011718 210.8982 149.1566 15.21417370063707 Pegasus 1 42784U 17036V 18228.80849527 .00000957 00000-0 45185-4 0 9994 2 42784 097.3963 287.5795 0011233 217.8131 142.2317 15.21785397063737 NUDATSat 1 42787U 17036Y 18228.89994454 .00001374 00000-0 62393-4 0 9990 2 42787 097.3971 287.9317 0010828 216.3522 143.6980 15.22415314063607 SUCHAI 1 1 42788U 17036Z 18228.82036868 .00001114 00000-0 51696-4 0 9996 2 42788 97.3965 287.7160 0010870 217.1245 142.9241 15.22074578 63811 SKCUBE 1 42789U 17036AA 18228.88721790 .00001042 00000-0 48599-4 0 9996 2 42789 097.3962 287.7708 0010718 216.8345 143.2156 15.22028283063748 VZLUSAT 1 1 42790U 17036AB 18228.88849692 .00001377 00000-0 62536-4 0 9998 2 42790 097.3968 287.9276 0010368 216.4947 143.5584 15.22431823063750 VENTA 1 1 42791U 17036AC 18228.93260258 .00000916 00000-0 43024-4 0 9999 2 42791 097.3961 287.8588 0010334 217.2072 142.8449 15.22070859063749 Robusta 1B 1 42792U 17036AD 18228.91582161 .00001108 00000-0 51277-4 0 9991 2 42792 097.3962 287.8736 0010260 217.5990 142.4529 15.22177865063768 D-SAT 1 42794U 17036AF 18228.91791284 .00000228 00000-0 25082-4 0 9998 2 42794 097.5862 281.2632 0128543 080.3331 281.2381 14.90908750062770 BIRD-J 1 42820U 98067MU 18228.92328044 .00028365 00000-0 23313-3 0 9998 2 42820 051.6346 051.3236 0002211 040.0373 320.0787 15.70191063063410 BIRD-G 1 42821U 98067MV 18228.87118664 .00026636 00000-0 22551-3 0 9990 2 42821 051.6346 052.4807 0002276 043.3231 316.7945 15.69509350063370 BIRD-M 1 42822U 98067MW 18228.90529105 .00027519 00000-0 22961-3 0 9997 2 42822 051.6349 051.9618 0002259 045.6624 314.4558 15.69844477063388 BIRD-B 1 42823U 98067MX 18228.89687286 .00026776 00000-0 22219-3 0 9991 2 42823 051.6354 051.9269 0004354 063.8875 296.2570 15.69986820063385 BIRD-N 1 42824U 98067MY 18228.93000194 .00027613 00000-0 23142-3 0 9991 2 42824 051.6357 052.1682 0004314 064.6028 295.5415 15.69727953063386 TechnoSat 1 42829U 17042E 18228.77017949 .00000023 00000-0 77365-5 0 9992 2 42829 97.5901 128.8232 0014393 4.6784 355.4566 14.90847326 59353 TOMSK-TPU 120 1 42910U 98067MZ 18228.91818103 .00018958 00000-0 18710-3 0 9999 2 42910 051.6347 058.0485 0005690 082.9845 277.1798 15.65939666056895 TANYUSHA 1 1 42911U 98067NA 18228.92086415 .00022424 00000-0 20909-3 0 9990 2 42911 051.6354 056.6054 0005131 078.5582 281.5990 15.67238550056898 TANYUSHA 2 1 42912U 98067NB 18228.88384340 .00021308 00000-0 20461-3 0 9997 2 42912 051.6375 057.8458 0004761 090.5501 269.6040 15.66543469056896 SFERA 2 1 42913U 98067NC 18228.90418470 .00062107 00000-0 36446-3 0 9995 2 42913 051.6359 045.8635 0002208 122.4972 237.6242 15.77672590057052 TNS 0-2 1 42914U 98067ND 18228.90721478 .00018760 00000-0 18670-3 0 9996 2 42914 051.6362 058.7756 0004828 084.8407 275.3140 15.65741678056852 QIKCOM-1 1 42983U 98067NF 18228.94719714 .00003114 00000-0 49762-4 0 9990 2 42983 051.6400 072.6215 0004735 068.8533 291.2965 15.56598846045683 AO-91 1 43017U 17073E 18228.59818160 .00000683 00000-0 58290-4 0 9997 2 43017 097.7071 157.2142 0261101 075.0473 287.9486 14.78133866040035 EcAMSat 1 43019U 98067NG 18228.92270014 .00005107 00000-0 74461-4 0 9992 2 43019 051.6399 071.7131 0005246 046.5139 313.6289 15.57603197128015 PICSAT 1 43132U 18004X 18228.82943447 .00000923 00000-0 42574-4 0 9998 2 43132 097.5293 291.6612 0008502 241.9154 118.1223 15.22772421032947 AO-92 1 43137U 18004AC 18228.94704940 .00000833 00000-0 38703-4 0 9998 2 43137 097.5289 291.8032 0008004 243.3658 116.6758 15.22823600032961 TianYi 2 1 43155U 18008A 18228.90601788 .00000140 00000-0 12356-4 0 9991 2 43155 097.5212 302.3444 0016618 299.5217 163.8662 15.10640646031653 Zhou Enlai 1 43156U 18008B 18228.91271157 .00000147 00000-0 12944-4 0 9996 2 43156 097.5256 302.3011 0013561 296.2024 151.1892 15.10107449031649 TianYi 6 1 43158U 18008D 18228.70153543 .00000840 00000-0 55802-4 0 9993 2 43158 97.5198 301.8941 0013056 293.3688 232.1122 15.09808266 31587 S-Net G 1 43186U 18014G 18228.80229565 -.00000031 00000-0 23680-5 0 9993 2 43186 97.7196 136.4870 0010130 314.4933 45.5460 14.96480981 29380 S-Net H 1 43187U 18014H 18228.80218336 -.00000033 00000-0 22236-5 0 9996 2 43187 97.7194 136.4825 0010119 314.4873 45.5520 14.96481861 29384 S-Net J 1 43188U 18014J 18228.33402010 -.00000077 00000-0 -16875-5 0 9990 2 43188 97.7198 136.0270 0010158 316.4014 43.6404 14.96482659 29310 S-Net K 1 43189U 18014K 18228.46789893 -.00000057 00000-0 10506-6 0 9995 2 43189 97.7194 136.1517 0010152 315.7622 44.2787 14.96481471 27885 FMN 1 1 43192U 18015A 18228.94676228 .00001273 00000-0 57005-4 0 9993 2 43192 097.3633 356.6170 0015404 292.3636 067.5967 15.23001125029769 Shaonian Xing 1 43199U 18015H 18228.96062049 .00000883 00000-0 39468-4 0 9991 2 43199 097.3415 356.3286 0016511 306.0773 053.8931 15.23829807029791 1KUNS-PF 1 43466U 98067NP 18228.66461963 .00012058 00000-0 17194-3 0 9996 2 43466 51.6396 75.9804 0000528 91.4619 268.6434 15.56741141 15119 UBAKUSAT 1 43467U 98067NQ 18228.92977962 .00008662 00000-0 12710-3 0 9992 2 43467 051.6399 074.7540 0002426 011.9692 348.1357 15.56392805015166 Irazu 1 43468U 98067NR 18228.65315039 .00015361 00000-0 21448-3 0 9996 2 43468 051.6392 075.9039 0000491 098.4813 261.6235 15.57070377115108 OBJECT NU 1 43546U 98067NU 18228.95284315 .00008356 00000-0 12872-3 0 9995 2 43546 051.6437 075.6426 0007106 067.7445 292.4314 15.55095729005285 OBJECT NV 1 43547U 98067NV 18228.95398212 .00002393 00000-0 42309-4 0 9992 2 43547 051.6427 075.6487 0007218 069.4094 290.7671 15.54877643004968 OBJECT NW 1 43548U 98067NW 18228.95592719 .00006887 00000-0 10831-3 0 9997 2 43548 051.6430 075.6603 0007216 079.7470 280.4343 15.54850378005412 OBJECT NX 1 43549U 98067NX 18228.95555966 .00007784 00000-0 12130-3 0 9992 2 43549 051.6432 075.6592 0007107 081.2314 278.9493 15.54889912004970 OBJECT NY 1 43550U 98067NY 18228.95227474 .00009795 00000-0 14951-3 0 9991 2 43550 051.6429 075.6379 0006544 095.8105 264.3639 15.55122409005440 EnduroSat One 1 43551U 98067NZ 18228.94987108 .00007767 00000-0 11984-3 0 9998 2 43551 051.6429 075.6236 0007696 085.5553 274.6331 15.55167048005389 EQUISat 1 43552U 98067PA 18228.95004189 .00006638 00000-0 10362-3 0 9994 2 43552 051.6421 075.6251 0008038 086.1023 274.0887 15.55125557005355 OBJECT PB 1 43553U 98067PB 18228.95035525 .00005672 00000-0 89734-4 0 9990 2 43553 051.6429 075.6266 0008234 086.8825 273.3105 15.55080343005409 OBJECT PC 1 43554U 98067PC 18228.94903179 .00007892 00000-0 12146-3 0 9997 2 43554 051.6423 075.6178 0007937 086.6543 273.5357 15.55208924004924 OBJECT PD 1 43589U 98067PD 18228.77659872 .00010086 00000-0 15653-3 0 9999 2 43589 051.6396 076.7211 0006849 092.4995 267.6780 15.54622014001052 OBJECT PE 1 43590U 98067PE 18228.77648787 .00010199 00000-0 15804-3 0 9997 2 43590 051.6396 076.7203 0006951 093.3359 266.8427 15.54649489000988 OBJECT PF 1 43591U 98067PF 18228.77633703 .00010157 00000-0 15720-3 0 9991 2 43591 051.6397 076.7195 0007057 094.6339 265.5458 15.54686017000988 /EX
